Location: Mahannah Oil Field
(37.4664°N, 96.6003°W)
Time: 00:49:18
(UTC+00:00)

A-11 Canister half - Pass Details

Date: 27 January 2021
Orbit: 1524 x 1684 km, 47.3° (Epoch: 25 February)

Event Time Altitude Azimuth Distance (km) Brightness Sun altitude
Rises 17:09:18 0° 179° (S) 4,667 12.5 30.4°
Reaches altitude 10° 17:13:45 10° 161° (SSE) 3,680 12.6 30.7°
Maximum altitude 17:19:09 17° 124° (SE) 3,153 11.8 31.2°
Drops below altitude 10° 17:24:34 10° 87° (E) 3,700 11.3 31.6°
Sets 17:29:00 0° 69° (ENE) 4,703 11.6 31.9°
